This demonstration page uses our WeatherBlox Daily Observations layout. Learn more.

Left ArrowRight Arrow

39.51506, -84.39828

Hourly Observations for October 8, 2018

Temp ( °F °C ) Dew Point ( °F °C ) Humidity (%) Winds ( mph kmh ) Pressure ( in mb ) Visibility ( mi km ) Precip ( " mm )
12:15 am 00:15 Clear with Mist and Fog 68 20.1 67 19.7 98 98 Calm 30.15 1021 5 8.0467 0 0
12:35 am 00:35 Clear with Mist and Fog 68 20.1 68 19.9 99 99 Calm 30.15 1021 4 6.43736 0 0
12:55 am 00:55 Partly Cloudy with Mist and Fog 68 19.8 67 19.6 99 99 Calm 30.15 1021 5 8.0467 0 0
1:15 am 01:15 Clear with Mist and Fog 68 19.8 67 19.5 98 98 Calm 30.15 1021 4 6.43736 0 0
1:35 am 01:35 Clear with Mist and Fog 68 20 67 19.5 97 97 Calm 30.15 1021 7 11.26538 0 0
1:55 am 01:55 Clear with Mist and Fog 67 19.4 66 19 98 98 Calm 30.15 1021 4 6.43736 0 0
2:15 am 02:15 Clear with Mist and Fog 67 19.7 67 19.3 98 98 Calm 30.15 1021 5 8.0467 0 0
2:35 am 02:35 Clear with Mist and Fog 67 19.4 66 19 98 98 Calm 30.15 1021 5 8.0467 0 0
2:55 am 02:55 Clear with Mist and Fog 67 19.6 67 19.2 98 98 Calm 30.15 1021 5 8.0467 0 0
3:15 am 03:15 Clear with Mist and Fog 67 19.2 66 18.8 98 98 Calm 30.15 1021 4 6.43736 0 0
3:35 am 03:35 Clear with Mist and Fog 66 19.1 66 18.9 99 99 Calm 30.15 1021 4 6.43736 0 0
3:55 am 03:55 Clear with Mist and Fog 66 19.1 66 18.9 99 99 Calm 30.15 1021 3 4.82802 0 0
4:15 am 04:15 Mostly Cloudy with Mist and Fog 66 19 66 18.8 99 99 Calm 30.15 1021 0.75 1.207005 0 0
4:35 am 04:35 Mostly Cloudy with Mist and Fog 66 18.9 66 18.7 99 99 Calm 30.15 1021 1.25 2.011675 0 0
4:55 am 04:55 Mostly Cloudy with Mist and Fog 66 18.9 66 18.8 99 99 Calm 30.15 1021 1.25 2.011675 0 0
5:15 am 05:15 Mostly Cloudy with Mist and Fog 66 18.7 65 18.6 99 99 Calm 30.15 1021 1.75 2.816345 0 0
5:35 am 05:35 Clear with Mist and Fog 66 18.9 66 18.8 99 99 Calm 30.15 1021 2.5 4.02335 0 0
5:55 am 05:55 Clear with Mist and Fog 66 18.7 65 18.6 99 99 Calm 30.15 1021 3.5 5.63269 0 0
6:15 am 06:15 Mostly Cloudy with Mist and Fog 65 18.5 65 18.4 99 99 Calm 30.15 1021 1.5 2.41401 0 0
6:35 am 06:35 Mostly Cloudy with Mist and Fog 65 18.3 65 18.2 99 99 Calm 30.15 1021 2 3.21868 0 0
6:55 am 06:55 Clear with Mist and Fog 65 18.3 65 18.2 99 99 Calm 30.15 1021 2.5 4.02335 0 0
7:15 am 07:15 Clear with Mist and Fog 65 18.3 65 18.2 99 99 Calm 30.15 1021 3 4.82802 0 0
7:35 am 07:35 Clear with Mist and Fog 65 18.3 65 18.1 99 99 Calm 30.15 1021 2.5 4.02335 0 0
7:55 am 07:55 Sunny with Mist and Fog 65 18.1 64 18 99 99 Calm 30.15 1021 2.5 4.02335 0 0
8:15 am 08:15 Sunny with Mist and Fog 65 18.3 65 18.1 99 99 Calm 30.18 1022 4 6.43736 0 0
8:35 am 08:35 Sunny with Mist and Fog 67 19.3 66 19.1 99 99 Calm 30.18 1022 4 6.43736 0 0
8:55 am 08:55 Sunny with Mist and Fog 68 20.2 67 19.7 97 97 Calm 30.18 1022 5 8.0467 0 0
9:15 am 09:15 Sunny with Mist and Fog 70 21.1 69 20.4 96 96 Calm 30.18 1022 5 8.0467 0 0
9:35 am 09:35 Sunny 72 22.4 70 20.9 91 91 Calm 30.18 1022 7 11.26538 0 0
9:55 am 09:55 Sunny 75 23.7 71 21.5 88 88 Calm 30.18 1022 10 16.0934 0 0
10:15 am 10:15 Sunny 77 25.1 71 21.9 82 82 S 6 9 30.18 1022 10 16.0934 0 0
10:35 am 10:35 Sunny 78 25.8 72 22 80 80 SW 3 6 30.18 1022 10 16.0934 0 0
10:55 am 10:55 Sunny 80 26.4 71 21.6 75 75 SSW 7 11 30.18 1022 10 16.0934 0 0
11:15 am 11:15 Sunny 80 26.9 71 21.6 73 73 SSW 6 9 30.18 1022 10 16.0934 0 0
11:35 am 11:35 Sunny 82 27.5 71 21.6 70 70 S 6 9 30.18 1022 10 16.0934 0 0
11:55 am 11:55 Partly Cloudy 83 28.1 71 21.4 67 67 SSW 7 11 30.18 1022 10 16.0934 0 0
12:15 pm 12:15 Partly Cloudy 84 29 70 21.2 63 63 SW 9 15 30.18 1022 10 16.0934 0 0
12:35 pm 12:35 Sunny 85 29.4 69 20.4 58 58 SSW 10 17 30.18 1022 10 16.0934 0 0
12:55 pm 12:55 Sunny 85 29.7 69 20.5 58 58 SSW 9 15 30.18 1022 10 16.0934 0 0
1:15 pm 13:15 Partly Cloudy 86 30 69 20.3 56 56 WSW 10 17 30.12 1020 10 16.0934 0 0
1:35 pm 13:35 Sunny 86 30.2 69 20.3 55 55 SW 7 11 30.12 1020 10 16.0934 0 0
1:55 pm 13:55 Sunny 87 30.4 69 20.6 56 56 SSW 9 15 30.12 1020 10 16.0934 0 0
2:35 pm 14:35 Partly Cloudy 85 29.6 68 20.1 57 57 S 8 13 30.09 1019 10 16.0934 0 0
2:55 pm 14:55 Partly Cloudy 87 30.6 68 20 53 53 S 7 11 30.09 1019 10 16.0934 0 0
3:15 pm 15:15 Partly Cloudy 88 31 68 20.2 53 53 SW 8 13 30.09 1019 10 16.0934 0 0
3:35 pm 15:35 Sunny 87 30.7 67 19.7 52 52 S 8 13 30.09 1019 10 16.0934 0 0
3:55 pm 15:55 Sunny 86 30.1 67 19.6 53 53 SSW 9 15 30.09 1019 10 16.0934 0 0
4:15 pm 16:15 Sunny 85 29.6 67 19.7 55 55 SSW 8 13 30.09 1019 10 16.0934 0 0
4:35 pm 16:35 Partly Cloudy 85 29.5 67 19.3 54 54 SSW 8 13 30.09 1019 10 16.0934 0 0
4:55 pm 16:55 Cloudy 85 29.7 68 20 56 56 S 7 11 30.09 1019 10 16.0934 0 0
5:15 pm 17:15 Cloudy 86 30.1 67 19.7 54 54 S 7 11 30.09 1019 10 16.0934 0 0
5:35 pm 17:35 Cloudy 87 30.4 68 20.1 54 54 SSE 7 11 30.09 1019 10 16.0934 0 0
5:55 pm 17:55 Cloudy 85 29.3 68 19.9 57 57 S 7 11 30.12 1020 10 16.0934 0 0
6:15 pm 18:15 Partly Cloudy 84 28.7 67 19.7 58 58 S 7 11 30.12 1020 10 16.0934 0 0
6:35 pm 18:35 Sunny 82 28 68 20 62 62 S 5 7 30.12 1020 10 16.0934 0 0
6:55 pm 18:55 Sunny 79 26 71 21.4 76 76 Calm 30.12 1020 10 16.0934 0 0
7:15 pm 19:15 Clear 78 25.4 70 20.9 76 76 Calm 30.12 1020 10 16.0934 0 0
7:35 pm 19:35 Clear 75 24 71 21.6 87 87 Calm 30.12 1020 10 16.0934 0 0
7:55 pm 19:55 Clear 74 23.3 71 21.5 90 90 Calm 30.12 1020 10 16.0934 0 0
8:15 pm 20:15 Clear 73 22.6 70 21.3 92 92 Calm 30.12 1020 10 16.0934 0 0
8:35 pm 20:35 Clear 72 22.3 70 21.1 93 93 Calm 30.12 1020 10 16.0934 0 0
8:55 pm 20:55 Clear 71 21.7 69 20.7 94 94 Calm 30.12 1020 10 16.0934 0 0
9:15 pm 21:15 Clear 71 21.5 69 20.7 95 95 Calm 30.12 1020 10 16.0934 0 0
9:35 pm 21:35 Clear 71 21.8 69 20.4 92 92 Calm 30.12 1020 10 16.0934 0 0
9:55 pm 21:55 Clear 76 24.5 69 20.7 79 79 SSE 8 13 30.12 1020 10 16.0934 0 0
10:15 pm 22:15 Clear 77 25 69 20.7 77 77 SSE 6 9 30.12 1020 10 16.0934 0 0
10:35 pm 22:35 Clear 77 24.9 69 20.6 77 77 SSE 6 9 30.12 1020 10 16.0934 0 0
10:55 pm 22:55 Clear 77 24.8 69 20.6 78 78 SSE 3 6 30.12 1020 10 16.0934 0 0
11:15 pm 23:15 Clear 76 24.4 69 20.5 79 79 SE 5 7 30.12 1020 10 16.0934 0 0
11:35 pm 23:35 Clear 72 22.3 68 20.2 88 88 NW 3 6 30.12 1020 10 16.0934 0 0
11:55 pm 23:55 Clear 70 20.9 68 20.2 96 96 Calm 30.12 1020 10 16.0934 0 0

Powered by AerisWeather